Zurück zum Katalog

STARLINK-30826

AktivKommunikationVLEO
NORAD 58188·PAYLOAD·🇺🇸 United States

Gestartet Oct 30, 2023 von Cape Canaveral Space Force Station

Loading…

Nächste Überflüge (nächste 24 Stunden)

TLE

AktuellSource: CelesTrak SupGP

Epoche: Sep 14, 2026, 21:30 UTC

1 58188C 23167P   26257.89631944 -.00034348  00000+0 -12443-2 0  2571
2 58188  43.0026 154.8468 0001516 269.5004  30.3755 15.27590147    17

Verfolge STARLINK-30826 in Echtzeit mit AllMySat

Download on the App Store